User: anonymous
Location: Mentone
(34.5413°N, 85.5351°W)
Time: 01:24:12
(UTC-05:00)
Language:

Transit 2A Rocket - Orbit

View from above orbital plane
View from above orbital plane
View from above satellite
View from above satellite

Ground track
Ground track

The orbit data is extracted from the following two-line orbital elements,

1 00047U 60007C   14293.52383932  .00001564  00000-0  37855-3 0  3393
2 00047 066.6664 279.8738 0228586 013.1165 347.5745 14.41255450837148
Epoch (UTC): 20 October 2014 12:34:19
Eccentricity: 0.0228586
inclination: 66.6664°
perigee height: 591 km
apogee height: 917 km
right ascension of ascending node: 279.8738°
argument of perigee: 13.1165°
revolutions per day: 14.41255450
mean anomaly at epoch: 347.5745°
orbit number at epoch: 83714

The dashed part of the orbit path shows where the satellite is in the earth's shadow,  

DLR